[[[{"header":{"parameterUnit":"kt","parameterCategory":2,"dx":1,"dy":1,"la1":30.253999710083008,"la2":30.299108505249023,"lo1":-89.0895004272461,"lo2":-89.04439544677734,"nx":28,"ny":28,"refTime":"2022-10-14T21:00:00:Z","depth":0,"parameterNumber":1,"parameterNumberName":"U-component_of_WINDS"},"data":[-4.2916,-4.299,-4.296,-4.3033,-4.3018,-4.3063,-4.3069,-4.3075,-4.3072,-4.3125,-4.315,-4.3128,-4.3115,-4.3139,-4.3166,-4.3156,-4.3169,-4.322,-4.3199,-4.2997,-4.2967,-4.2938,-4.2917,-4.3224,-4.3225,-4.3412,-4.3413,-4.3415,-4.2781,-4.2766,-4.2795,-4.2801,-4.2826,-4.276,-4.276,-4.2785,-4.2828,-4.2824,-4.2845,-4.2889,-4.292,-4.2887,-4.2912,-4.2949,-4.2918,-4.2958,-4.2953,-4.2952,-4.2736,-4.2714,-4.2983,-4.2983,-4.2983,-4.2983,-4.2983,-4.2983,-4.2525,-4.2571,-4.2554,-4.2584,-4.2578,-4.2583,-4.2622,-4.2591,-4.2619,-4.2637,-4.2594,-4.2642,-4.2632,-4.2644,-4.2641,-4.2678,-4.2628,-4.2661,-4.2669,-4.2678,-4.2693,-4.243,-4.2681,-4.268,-4.2679,-4.2678,-4.2678,0,-4.2327,-4.2298,-4.2319,-4.2335,-4.2354,-4.2362,-4.2363,-4.2387,-4.231,-4.2337,-4.2372,-4.2387,-4.2418,-4.2448,-4.2463,-4.245,-4.2381,-4.2371,-4.2393,-4.2413,-4.2433,-4.2424,-4.2073,-4.2362,-4.2359,-4.2357,-4.2356,-4.2354,-4.2067,-4.2122,-4.2087,-4.2107,-4.2098,-4.2133,-4.2146,-4.2074,-4.2092,-4.2084,-4.2128,-4.2157,-4.2175,-4.2238,-4.2199,-4.2222,-4.2188,-4.2303,-4.219,-4.2211,-4.2189,-4.2186,-4.2192,-4.2324,-4.2328,-4.2331,-4.2334,0,-4.1924,-4.1866,-4.194,-4.1898,-4.1889,-4.1952,-4.1917,-4.1959,-4.1921,-4.1975,-4.1983,-4.1925,-4.196,-4.1902,-4.193,-4.1899,-4.2008,-4.1974,-4.2012,-4.2001,-4.2098,-4.209,-4.242,-4.246,-4.2141,-4.2144,-4.2147,0,-4.1677,-4.1752,-4.1662,-4.1707,-4.179,-4.1711,-4.1795,-4.1769,-4.1754,-4.1795,-4.1706,-4.1747,-4.1663,-4.1697,-4.165,-4.1728,-4.1733,-4.1713,-4.1699,-4.172,-4.1723,-4.1726,-4.1711,-4.1665,-4.1664,-4.1662,-4.1661,0,-4.1457,-4.1494,-4.1568,-4.1566,-4.1526,-4.1564,-4.1549,-4.1529,-4.1542,-4.155,-4.1558,-4.1574,-4.1582,-4.1598,-4.1536,-4.1463,-4.1629,-4.1515,-4.1609,-4.1611,-4.1645,-4.1643,-4.1954,-4.1659,-4.1658,-4.1658,-4.1657,0,-4.1246,-4.1252,-4.1367,-4.1331,-4.1343,-4.1392,-4.1399,-4.1426,-4.1413,-4.1384,-4.1389,-4.132,-4.138,-4.1273,-4.1356,-4.1278,-4.1293,-4.1278,-4.1284,-4.1283,-4.1162,-4.1343,-4.1646,-4.1675,-4.1288,-4.1285,-4.1283,0,-4.1011,-4.1109,-4.1038,-4.1149,-4.1185,-4.1078,-4.1131,-4.1119,-4.1085,-4.1112,-4.1075,-4.1106,-4.1012,-4.1013,-4.1063,-4.1025,-4.1128,-4.101,-4.1054,-4.1056,-4.1059,-4.1338,-4.1396,-4.1587,-4.1242,-4.1246,-4.1249,0,-4.0819,-4.0763,-4.0787,-4.0781,-4.0748,-4.0776,-4.0838,-4.0848,-4.0871,-4.0865,-4.0915,-4.0957,-4.0888,-4.0889,-4.0832,-4.0887,-4.1057,-4.0804,-4.0802,-4.0852,-4.1216,-4.1272,-4.1304,-4.1007,-4.1012,-4.1016,-4.1217,0,-4.0515,-4.0553,-4.0616,-4.0602,-4.0613,-4.0677,-4.0605,-4.0628,-4.0571,-4.053,-4.0601,-4.0571,-4.0583,-4.0601,-4.0545,-4.0689,-4.0654,-4.0579,-4.0465,-4.0649,-4.0713,-4.074,-4.0375,-4.0371,-4.0368,-4.0366,0,0,-4.0304,-4.0354,-4.027,-4.0322,-4.0326,-4.0209,-4.0284,-4.0274,-4.0257,-4.0264,-4.02,-4.0254,-4.0231,-4.0325,-4.0376,-4.038,-4.04,-4.0336,-4.0562,-4.0584,-4.0604,-4.0675,-4.0703,-4.036,-4.0359,-4.0358,-4.0357,0,-4.0175,-4.0151,-4.0223,-4.0209,-4.0184,-4.0135,-4.0153,-4.0106,-4.0083,-4.0149,-4.005,-4.0084,-4.0126,-4.0116,-4.0116,-4.0325,-4.0247,-4.0334,-4.047,-4.0532,-4.0559,-4.0582,-4.0657,-4.0685,-4.0349,-4.0349,-4.035,0,-3.9972,-3.9936,-3.9962,-3.9961,-3.9942,-3.998,-3.9844,-3.9889,-3.9916,-3.9783,-3.9849,-3.9822,-3.9801,-3.9897,-3.9937,-3.988,-4.0113,-4.0025,-4.0043,-4.0045,-4.0102,-4.0134,-4.0162,-3.9788,-3.9786,-3.9785,0,0,-3.9871,-3.9903,-3.9838,-3.9927,-3.9923,-3.9849,-3.9861,-3.9802,-3.9783,-3.9776,-3.9737,-3.9724,-3.9747,-3.9765,-3.9782,-3.9898,-3.9887,-3.9959,-3.9985,-4.0007,-4.0021,-4.0084,-4.0116,-3.9778,-3.9778,-3.9778,0,0,-3.9822,-3.9748,-3.9691,-3.9785,-3.9771,-3.9711,-3.977,-3.9699,-3.9706,-3.9689,-3.9593,-3.9585,-3.9673,-3.9649,-3.9574,-3.974,-3.9629,-3.9646,-3.9751,-3.9783,-3.9809,-3.9812,-3.9427,0,0,0,0,0,-3.965,-3.9758,-3.9707,-3.9711,-3.9706,-3.974,-3.9739,-3.966,-3.9584,-3.9633,-3.959,-3.9504,-3.9589,-3.9521,-3.9527,-3.961,-3.9698,-3.9712,-3.9725,-3.9888,-3.9923,-3.9952,0,0,0,0,0,0,-3.965,-3.9656,-3.9704,-3.965,-3.9648,-3.9735,-3.9589,-3.9571,-3.9577,-3.956,-3.9516,-3.9503,-3.9437,-3.9512,-3.9519,-3.9599,-3.9425,-3.9703,-3.9715,-3.9726,-3.99,-3.9929,-3.9953,0,0,0,0,0,-3.9651,-3.9655,-3.9667,-3.9648,-3.9646,-3.9568,-3.9584,-3.9567,-3.9571,-3.9502,-3.9486,-3.951,-3.9442,-3.9442,-3.9515,-3.9598,-3.9419,-3.9422,-3.9711,-3.9721,-3.9729,-3.9914,0,0,0,0,0,0,-3.9651,-3.964,-3.9665,-3.9662,-3.9599,-3.9561,-3.9552,-3.9565,-3.9511,-3.9497,-3.9491,-3.9478,-3.9446,-3.9446,-3.9447,-3.9602,-3.9415,-3.9418,-3.9419,-3.9718,-3.9726,-3.9733,0,0,0,0,0,0,-3.9638,-3.9639,-3.9664,-3.9606,-3.9596,-3.9556,-3.9548,-3.9597,-3.9512,-3.9503,-3.949,-3.9486,-3.9445,-3.9449,-3.9449,-3.953,-3.9411,-3.9414,-3.9416,-3.9417,-3.9725,-3.973,0,0,0,0,0,0,-3.9637,-3.9637,-3.9607,-3.9599,-3.9589,-3.9546,-3.9598,-3.9598,-3.9462,-3.9507,-3.9448,-3.9441,-3.9451,-3.9449,-3.9452,-3.9533,-3.9531,-3.9411,-3.9413,-3.9415,-3.9415,0,0,0,0,0,0,0,-3.9636,-3.9649,-3.9685,-3.9592,-3.9583,-3.9632,-3.9631,-3.963,-3.9461,-3.9455,-3.9449,-3.9444,-3.9394,-3.9398,-3.9401,-3.9536,0,0,-3.9411,-3.9412,0,0,0,0,0,0,0,0,-3.9647,-3.9649,-3.9685,-3.9684,-3.9684,-3.9631,-3.9631,-3.963,-3.946,-3.9455,-3.945,-3.9446,-3.9395,-3.9398,-3.9401,0,0,0,0,0,0,0,0,0,0,0,0,0,0,0,-3.9685,-3.9684,0,-3.9631,-3.9631,-3.963,-3.9459,-3.9455,-3.9451,-3.9448,-3.9396,-3.9398,-3.94,0,0,0,0,0,0,0,0,0,0,0,0,0,0,0,0,0,0,0,0,0,0,0,0,0,0,0,0,0,0,0,0,0,0,0,0,0,0,0,0,0,0,0,0,0,0,0,0,0,0,0,0,0,0,0,0,0,0,0,0,0,0,0,0,0,0,0,0,0]}],[{"header":{"parameterUnit":"kt","parameterCategory":2,"dx":1,"dy":1,"la1":30.253999710083008,"la2":30.299108505249023,"lo1":-89.0895004272461,"lo2":-89.04439544677734,"nx":28,"ny":28,"refTime":"2022-10-14T21:00:00:Z","depth":0,"parameterNumber":2,"parameterNumberName":"V-component_of_WINDS"},"data":[5.6442,5.6394,5.6429,5.6388,5.6412,5.6389,5.6391,5.6397,5.641,5.6384,5.6374,5.64,5.6423,5.6417,5.6406,5.6417,5.6409,5.6369,5.6388,5.6543,5.6567,5.6589,5.6604,5.6367,5.6367,5.6221,5.622,5.6219,5.6556,5.658,5.6569,5.6581,5.6571,5.6632,5.6645,5.6632,5.6608,5.6623,5.6615,5.6593,5.6579,5.6616,5.6606,5.6581,5.6607,5.6576,5.6577,5.6579,5.6747,5.6763,5.6556,5.6556,5.6556,5.6556,5.6556,5.6556,5.6773,5.6742,5.677,5.6758,5.6773,5.678,5.6755,5.679,5.6777,5.6774,5.6815,5.6787,5.6806,5.6809,5.6817,5.6795,5.6833,5.6808,5.6801,5.6793,5.6781,5.6985,5.6794,5.6795,5.6796,5.6796,5.6797,0,5.6941,5.6972,5.6964,5.6965,5.6958,5.6961,5.6969,5.6955,5.7028,5.7013,5.6994,5.6988,5.6975,5.6958,5.6956,5.6969,5.7024,5.7034,5.7017,5.6995,5.6978,5.6985,5.7256,5.7038,5.704,5.7042,5.7043,5.7044,5.716,5.712,5.7165,5.7154,5.7168,5.7148,5.7143,5.7211,5.7201,5.7219,5.7186,5.7172,5.7164,5.7124,5.7159,5.7147,5.7173,5.7087,5.7171,5.7155,5.717,5.717,5.7166,5.7067,5.7064,5.7062,5.706,0,5.728,5.7336,5.7285,5.7332,5.7343,5.7297,5.7336,5.7306,5.7342,5.7305,5.73,5.7354,5.7332,5.7383,5.7366,5.7393,5.7312,5.7339,5.7307,5.7314,5.724,5.7245,5.6994,5.6965,5.7213,5.7211,5.7209,0,5.7487,5.7431,5.7518,5.7485,5.7426,5.7496,5.7434,5.7459,5.7477,5.7449,5.7524,5.7494,5.7564,5.7541,5.758,5.7523,5.752,5.7536,5.7546,5.7527,5.7525,5.7518,5.7528,5.7573,5.7574,5.7576,5.7576,0,5.7666,5.7648,5.7596,5.76,5.7643,5.7616,5.7631,5.7652,5.7645,5.7644,5.7639,5.7631,5.7625,5.7617,5.7666,5.7722,5.7599,5.7685,5.7614,5.7612,5.758,5.7581,5.735,5.7578,5.7578,5.7579,5.7579,0,5.7841,5.7843,5.7759,5.7797,5.7788,5.7752,5.7752,5.7733,5.7749,5.7773,5.7771,5.7825,5.7781,5.7863,5.7803,5.7861,5.7851,5.7862,5.7858,5.7854,5.7943,5.7803,5.7581,5.7558,5.7855,5.7857,5.7859,0,5.8031,5.7961,5.8022,5.7938,5.7913,5.8001,5.7962,5.7974,5.8002,5.7983,5.8013,5.7988,5.806,5.8059,5.8023,5.805,5.7975,5.8063,5.8026,5.8024,5.8018,5.7816,5.7768,5.7625,5.7889,5.7886,5.7884,0,5.8184,5.8239,5.822,5.8228,5.8258,5.8235,5.8191,5.8184,5.8168,5.8172,5.8134,5.8101,5.8154,5.815,5.8192,5.8151,5.8028,5.8212,5.8213,5.8175,5.7909,5.7865,5.7841,5.8065,5.8061,5.8058,5.7908,0,5.8432,5.8405,5.8357,5.837,5.8362,5.8312,5.837,5.8353,5.8397,5.8427,5.8372,5.8392,5.8379,5.8366,5.8405,5.8298,5.8322,5.8378,5.8457,5.8325,5.8276,5.8257,5.8526,5.8529,5.8531,5.8533,0,0,5.8598,5.856,5.8626,5.8587,5.8584,5.8675,5.8617,5.8623,5.8632,5.8627,5.8674,5.8627,5.864,5.8566,5.8529,5.8524,5.8509,5.8552,5.8388,5.8372,5.8357,5.8304,5.8283,5.8537,5.8538,5.8538,5.8539,0,5.87,5.872,5.8663,5.8675,5.8694,5.873,5.8717,5.8749,5.8766,5.8713,5.8784,5.8757,5.8716,5.8721,5.8717,5.8564,5.8615,5.8556,5.8456,5.8409,5.839,5.8373,5.8317,5.8296,5.8545,5.8544,5.8544,0,5.886,5.8887,5.8867,5.8866,5.8878,5.8848,5.8949,5.8913,5.8891,5.8985,5.893,5.8947,5.8956,5.888,5.8847,5.8887,5.871,5.8775,5.8762,5.8758,5.8715,5.8692,5.8671,5.8943,5.8945,5.8946,0,0,5.894,5.8915,5.8963,5.8892,5.8895,5.8948,5.8937,5.8979,5.8989,5.8991,5.9014,5.9018,5.8996,5.8979,5.896,5.8869,5.8874,5.8822,5.8803,5.8788,5.8775,5.8728,5.8705,5.895,5.895,5.895,0,0,5.8976,5.9031,5.9075,5.9,5.9009,5.9048,5.9001,5.9054,5.9043,5.9054,5.9119,5.9122,5.9052,5.9064,5.9119,5.8989,5.9067,5.9055,5.8983,5.896,5.8941,5.8938,5.9219,0,0,0,0,0,5.911,5.9026,5.9064,5.9061,5.9057,5.9028,5.9028,5.9082,5.9138,5.9099,5.9127,5.9184,5.9108,5.9157,5.915,5.9087,5.9008,5.8998,5.8988,5.8873,5.8848,5.8828,0,0,0,0,0,0,5.9109,5.9104,5.9067,5.9102,5.9102,5.9032,5.9138,5.915,5.9143,5.9155,5.9177,5.9184,5.9227,5.9165,5.9157,5.9096,5.9222,5.9004,5.8995,5.8987,5.8865,5.8844,5.8827,0,0,0,0,0,5.9109,5.9105,5.9086,5.9104,5.9103,5.9156,5.9142,5.9153,5.9148,5.9189,5.9199,5.9189,5.9224,5.9221,5.916,5.9098,5.9227,5.9225,5.8998,5.8991,5.8985,5.8855,0,0,0,0,0,0,5.9108,5.9113,5.9087,5.9089,5.914,5.9161,5.9166,5.9155,5.9183,5.9192,5.9205,5.9214,5.922,5.9219,5.9216,5.9096,5.9232,5.9229,5.9227,5.8993,5.8988,5.8983,0,0,0,0,0,0,5.9116,5.9114,5.9088,5.9131,5.9138,5.9165,5.917,5.9125,5.9182,5.9197,5.9206,5.9209,5.9222,5.9217,5.9215,5.9143,5.9235,5.9233,5.9231,5.9229,5.8989,5.8984,0,0,0,0,0,0,5.9116,5.9115,5.9131,5.9136,5.9143,5.9167,5.9126,5.9118,5.9224,5.9194,5.9234,5.9239,5.9218,5.9218,5.9214,5.9142,5.9143,5.9235,5.9233,5.9232,5.9231,0,0,0,0,0,0,0,5.9116,5.9113,5.9077,5.9141,5.9147,5.9106,5.9106,5.9107,5.9225,5.9229,5.9233,5.9237,5.9252,5.9249,5.9246,5.9141,0,0,5.9236,5.9234,0,0,0,0,0,0,0,0,5.9115,5.9114,5.9077,5.9077,5.9078,5.9106,5.9106,5.9106,5.9225,5.9229,5.9232,5.9235,5.9251,5.9249,5.9246,0,0,0,0,0,0,0,0,0,0,0,0,0,0,0,5.9077,5.9077,0,5.9106,5.9106,5.9106,5.9226,5.9229,5.9231,5.9234,5.925,5.9248,5.9246,0,0,0,0,0,0,0,0,0,0,0,0,0,0,0,0,0,0,0,0,0,0,0,0,0,0,0,0,0,0,0,0,0,0,0,0,0,0,0,0,0,0,0,0,0,0,0,0,0,0,0,0,0,0,0,0,0,0,0,0,0,0,0,0,0,0,0,0,0]}]]]